Location: Binningen
(47.7924°N, 8.7261°E)
Time: 23:11:50
(UTC+00:00)

Cosmos 1869 Rocket - Pass Details

Date: 17 May 2021
Orbit: 605 x 633 km, 82.5° (Epoch: 24 June)

Event Time Altitude Azimuth Distance (km) Brightness Sun altitude
Rises 20:36:48 0° 349° (N) 2,875 8.1 -13.2°
Reaches altitude 10° 20:39:01 10° 349° (N) 1,968 7.2 -13.5°
Maximum altitude 20:43:22 82° 263° (W) 621 3.6 -13.9°
Enters shadow 20:46:33 18° 176° (S) 1,498 5.0 -14.3°
